カタログに戻る

STARLINK-35029

運用中通信SSO
NORAD 65445·PAYLOAD·🇺🇸 United States

打ち上げ Sep 3, 2025 から Vandenberg Space Force Base

Loading…

次のパス (今後24時間)

TLE

最新Source: CelesTrak SupGP

元期: Sep 15, 2026, 02:53 UTC

1 65445C 25194M   26258.12062500 -.00020954  00000+0 -65032-3 0  2582
2 65445  97.2844 107.8268 0001944  91.5461 227.6010 15.33456302    17

AllMySatでSTARLINK-35029をリアルタイム追跡

Download on the App Store